TimeCDT,TemperatureF,Dew PointF,Humidity,Sea Level PressureIn,VisibilityMPH,Wind Direction,Wind SpeedMPH,Gust SpeedMPH,PrecipitationIn,Events,Conditions,WindDirDegrees,DateUTC
12:15 AM,69.8,66.2,88,29.91,10.0,SE,9.2,-,N/A,,Overcast,130,2013-06-23 05:15:00
12:35 AM,69.8,66.2,88,29.89,7.0,ESE,9.2,-,N/A,,Overcast,120,2013-06-23 05:35:00
12:55 AM,69.8,66.2,88,29.88,7.0,SE,8.1,-,N/A,,Overcast,130,2013-06-23 05:55:00
1:15 AM,68.0,66.2,94,29.87,7.0,SE,8.1,-,N/A,,Overcast,130,2013-06-23 06:15:00
1:35 AM,68.0,64.4,88,29.85,7.0,SE,9.2,-,N/A,,Overcast,130,2013-06-23 06:35:00
1:55 AM,68.0,64.4,88,29.85,7.0,SSE,8.1,-,N/A,,Mostly Cloudy,150,2013-06-23 06:55:00
2:15 AM,68.0,64.4,88,29.87,10.0,SSE,10.4,-,N/A,,Scattered Clouds,160,2013-06-23 07:15:00
2:35 AM,68.0,62.6,83,29.87,10.0,SSE,5.8,-,N/A,,Mostly Cloudy,160,2013-06-23 07:35:00
2:55 AM,68.0,62.6,83,29.86,10.0,SSE,9.2,-,N/A,,Scattered Clouds,150,2013-06-23 07:55:00
3:15 AM,66.2,62.6,88,29.86,10.0,South,8.1,-,N/A,,Scattered Clouds,170,2013-06-23 08:15:00
3:35 AM,66.2,62.6,88,29.85,10.0,South,13.8,18.4,N/A,,Overcast,180,2013-06-23 08:35:00
3:55 AM,64.4,62.6,94,29.84,10.0,South,9.2,-,N/A,,Overcast,170,2013-06-23 08:55:00
4:15 AM,64.4,62.6,94,29.83,10.0,SSE,9.2,-,N/A,,Mostly Cloudy,160,2013-06-23 09:15:00
4:35 AM,64.4,62.6,94,29.81,10.0,South,9.2,-,N/A,,Mostly Cloudy,170,2013-06-23 09:35:00
4:55 AM,66.2,62.6,88,29.82,10.0,SSE,9.2,-,N/A,,Overcast,160,2013-06-23 09:55:00
5:15 AM,66.2,62.6,88,29.81,10.0,South,8.1,-,N/A,,Mostly Cloudy,170,2013-06-23 10:15:00
5:35 AM,68.0,62.6,83,29.80,10.0,South,8.1,-,N/A,,Mostly Cloudy,170,2013-06-23 10:35:00
5:55 AM,68.0,62.6,83,29.79,10.0,SE,6.9,-,N/A,,Scattered Clouds,130,2013-06-23 10:55:00
6:15 AM,68.0,62.6,83,29.83,10.0,South,9.2,-,N/A,,Mostly Cloudy,170,2013-06-23 11:15:00
6:35 AM,68.0,62.6,83,29.83,10.0,SSE,10.4,-,N/A,,Mostly Cloudy,160,2013-06-23 11:35:00
6:55 AM,68.0,62.6,83,29.84,10.0,South,11.5,-,N/A,,Mostly Cloudy,180,2013-06-23 11:55:00
7:15 AM,68.0,62.6,83,29.84,10.0,South,12.7,-,N/A,,Overcast,190,2013-06-23 12:15:00
7:35 AM,69.8,62.6,78,29.86,10.0,SSW,13.8,21.9,N/A,,Overcast,210,2013-06-23 12:35:00
7:55 AM,69.8,62.6,78,29.83,10.0,SSW,16.1,-,N/A,Thunderstorm,Overcast,200,2013-06-23 12:55:00
8:15 AM,69.8,62.6,78,29.82,10.0,SSE,9.2,-,N/A,,Scattered Clouds,150,2013-06-23 13:15:00
8:35 AM,69.8,62.6,78,29.78,10.0,SE,11.5,-,N/A,,Clear,140,2013-06-23 13:35:00
8:55 AM,68.0,62.6,83,29.78,10.0,South,15.0,21.9,N/A,Rain,Light Rain,170,2013-06-23 13:55:00
9:15 AM,69.8,62.6,78,29.76,10.0,South,13.8,-,N/A,,Scattered Clouds,170,2013-06-23 14:15:00
9:35 AM,69.8,64.4,83,29.75,10.0,South,17.3,21.9,N/A,Rain,Light Rain,180,2013-06-23 14:35:00
9:55 AM,68.0,62.6,83,29.75,10.0,South,18.4,-,N/A,,Scattered Clouds,180,2013-06-23 14:55:00
10:15 AM,68.0,62.6,83,29.74,10.0,South,18.4,23.0,N/A,,Clear,170,2013-06-23 15:15:00
10:35 AM,69.8,64.4,83,29.74,10.0,South,19.6,24.2,N/A,,Clear,170,2013-06-23 15:35:00
10:55 AM,71.6,66.2,83,29.74,10.0,South,19.6,28.8,N/A,,Scattered Clouds,180,2013-06-23 15:55:00
11:15 AM,71.6,64.4,78,29.75,10.0,South,19.6,27.6,N/A,,Scattered Clouds,190,2013-06-23 16:15:00
11:35 AM,71.6,64.4,78,29.76,10.0,SW,10.4,-,N/A,,Clear,220,2013-06-23 16:35:00
11:55 AM,71.6,64.4,78,29.78,10.0,SSW,11.5,-,N/A,,Mostly Cloudy,200,2013-06-23 16:55:00
12:15 PM,71.6,64.4,78,29.78,10.0,SSW,11.5,-,N/A,,Overcast,210,2013-06-23 17:15:00
12:35 PM,73.4,64.4,73,29.79,10.0,SW,10.4,-,N/A,,Overcast,220,2013-06-23 17:35:00
12:55 PM,73.4,64.4,73,29.81,10.0,SW,16.1,-,N/A,,Mostly Cloudy,220,2013-06-23 17:55:00
1:15 PM,75.2,64.4,69,29.81,10.0,SW,19.6,25.3,N/A,,Scattered Clouds,230,2013-06-23 18:15:00
1:35 PM,73.4,64.4,73,29.80,10.0,SW,17.3,25.3,N/A,,Mostly Cloudy,230,2013-06-23 18:35:00
1:55 PM,77.0,64.4,65,29.80,10.0,SSW,21.9,26.5,N/A,,Scattered Clouds,210,2013-06-23 18:55:00
2:15 PM,77.0,64.4,65,29.79,10.0,SW,18.4,21.9,N/A,,Mostly Cloudy,230,2013-06-23 19:15:00
2:35 PM,77.0,64.4,65,29.80,10.0,SW,17.3,21.9,N/A,,Mostly Cloudy,230,2013-06-23 19:35:00
2:55 PM,77.0,64.4,65,29.81,10.0,SW,18.4,21.9,N/A,,Mostly Cloudy,230,2013-06-23 19:55:00
3:15 PM,78.8,64.4,61,29.81,10.0,SW,18.4,24.2,N/A,,Mostly Cloudy,220,2013-06-23 20:15:00
3:35 PM,78.8,64.4,61,29.81,10.0,SW,17.3,23.0,N/A,,Scattered Clouds,230,2013-06-23 20:35:00
3:55 PM,78.8,62.6,57,29.81,10.0,SW,15.0,-,N/A,,Scattered Clouds,230,2013-06-23 20:55:00
4:15 PM,78.8,64.4,61,29.81,10.0,WSW,12.7,21.9,N/A,,Scattered Clouds,240,2013-06-23 21:15:00
4:35 PM,78.8,62.6,57,29.81,10.0,WSW,15.0,-,N/A,,Mostly Cloudy,240,2013-06-23 21:35:00
4:55 PM,78.8,62.6,57,29.81,10.0,SW,15.0,19.6,N/A,,Scattered Clouds,230,2013-06-23 21:55:00
5:15 PM,78.8,62.6,57,29.81,10.0,SSW,10.4,-,N/A,,Clear,210,2013-06-23 22:15:00
5:35 PM,77.0,62.6,61,29.81,10.0,SW,11.5,-,N/A,,Clear,220,2013-06-23 22:35:00
5:55 PM,77.0,64.4,65,29.82,10.0,SW,15.0,-,N/A,,Scattered Clouds,230,2013-06-23 22:55:00
6:15 PM,78.8,64.4,61,29.83,10.0,SW,12.7,-,N/A,,Scattered Clouds,230,2013-06-23 23:15:00
6:35 PM,77.0,62.6,61,29.83,10.0,SW,11.5,-,N/A,,Mostly Cloudy,220,2013-06-23 23:35:00
6:55 PM,77.0,62.6,61,29.83,10.0,WSW,10.4,-,N/A,,Scattered Clouds,240,2013-06-23 23:55:00
7:15 PM,77.0,64.4,65,29.83,10.0,WSW,6.9,-,N/A,,Clear,240,2013-06-24 00:15:00
7:35 PM,77.0,62.6,61,29.84,10.0,WSW,11.5,-,N/A,,Clear,240,2013-06-24 00:35:00
7:55 PM,77.0,62.6,61,29.84,10.0,SW,8.1,-,N/A,,Clear,230,2013-06-24 00:55:00
8:15 PM,75.2,62.6,65,29.84,10.0,SW,5.8,-,N/A,,Clear,220,2013-06-24 01:15:00
8:35 PM,73.4,62.6,69,29.85,10.0,SW,5.8,-,N/A,,Clear,220,2013-06-24 01:35:00
8:55 PM,71.6,64.4,78,29.85,10.0,SSW,4.6,-,N/A,,Clear,210,2013-06-24 01:55:00
9:15 PM,71.6,64.4,78,29.86,10.0,SSW,4.6,-,N/A,,Clear,200,2013-06-24 02:15:00
9:35 PM,69.8,64.4,83,29.87,10.0,SSW,4.6,-,N/A,,Clear,210,2013-06-24 02:35:00
9:55 PM,68.0,64.4,88,29.88,10.0,WSW,3.5,-,N/A,,Clear,240,2013-06-24 02:55:00
10:15 PM,68.0,62.6,83,29.89,10.0,WSW,3.5,-,N/A,,Clear,240,2013-06-24 03:15:00
10:35 PM,68.0,64.4,88,29.89,10.0,Calm,Calm,-,N/A,,Clear,0,2013-06-24 03:35:00
10:55 PM,66.2,62.6,88,29.89,10.0,Calm,Calm,-,N/A,,Clear,0,2013-06-24 03:55:00
11:15 PM,64.4,62.6,94,29.89,10.0,Calm,Calm,-,N/A,,Clear,0,2013-06-24 04:15:00
11:35 PM,64.4,62.6,94,29.89,10.0,Calm,Calm,-,N/A,,Clear,0,2013-06-24 04:35:00
11:55 PM,64.4,62.6,94,29.89,10.0,South,4.6,-,N/A,,Clear,180,2013-06-24 04:55:00